STARLINK-11438, 62888

Orbit data source: Space-Track

STARLINK-11438, 62888 is a payload satellite owned by SpaceX/Seattle (US) in LEO that was launched on Tue, 04 Feb 2025 UTC via an FALCON 9 launch vehicle from the Air Force Eastern Test Range (AFETR). Payload-class satellites include a variety of spacecraft equipped with specific instruments for various scientific and technological missions. These include communications satellites like Starlink; space stations such as the ISS; scientific satellites like the Hubble; Earth observation satellites from companies like Planet Labs, Umbra, and HawkEye 360; GPS; miniature CubeSats for education and research; and military/defense satellites.

Loading next visibility...
Identifier
62888, 2025-024K
Orbit
LEO
Country
Flag of USUS
Related business
Manufacturer
SpaceX/Seattle
Mission
Operational Commercial Communications
Bus & Motor
STARLINK V2MD, Unknown motor
Mass
960 kg wet, ~910 kg dry
Launch date (UTC)
Icon of a cake. It is the launch day of the satellite!2025-02-04 (1 year ago)
Launch vehicle
FALCON 9
Launch site
Air Force Eastern Test Range (AFETR)
Object type
Payload
Rocket body
Debris
Shape & HBR
Box + 2 Pan, 18.1 m
Radar Cross Section
36.964 m², Large (>1 m²)

Expand to show TLE details & history
Last TLE update: 1 day ago

TLE from 1 day ago
0 STARLINK-11438
1 62888U 25024K   26034.37891775  .00298260  00000-0  22378-2 0  9998
2 62888  42.9994  27.9783 0001378 272.7656  87.3054 15.70921668 58073
Epoch: 2026-02-03T09:05Z
TLE epoch observation values (Epoch: 2026-02-03T09:05:38.493Z)
Latitude
-0.00002°
Longitude
118.00719°
Altitude
355.989 km
Speed
7.697 km/s
True Right ascension
01h 51m 54s
True Declination
0° 00' 00"
Sunlit
Object was in daylight at epoch
Visualization orbit readout
Latitude
Unknown
Longitude
Unknown
Altitude
Unknown
Speed
Unknown
Apparent Right ascension
Unknown
Apparent Declination
Unknown
Sunlit
N/A
Visualization observer readout
Local Sidereal Time
20:16:10
Azimuth
Unknown
Elevation
Unknown
Doppler factor
Unknown
Orbital elements
Apogee altitude
359.172 km
Perigee altitude
357.315 km
Semi-major axis
6,736.38 km
Eccentricity
0.00014
Inclination
42.9994°
RAAN
27.9783°
Arg. of periapsis
272.7656°
True anomaly
87.32117°
Mean anomaly
87.3054°
Eccentric anomaly
87.31329°
Mean motion
3.92557 °/min
Orbital period
91.71 mins
BSTAR
0.0022378
Loading maneuver chart data...
Computing Atmospheric mass density...
Loading historical data...
Loading historical data...
Loading historical data...
Loading historical data...
Loading historical data...
Loading historical data...
Loading historical data...

Documentation

Showing up to 5 results
|